Longville, MN

2:08 PM CDT on April 26, 2017 (GMT -0500)
Longville Municipal

Weather History for KXVG - January, 2014

Change the Weather History Date:

Wednesday, January 1, 2014

  Actual Average (KPWC) Record (KPWC)
Temperature  
Mean Temperature -15 °F -  
Max Temperature -5 °F 19 °F 41 °F (1998)
Min Temperature -25 °F 3 °F -23 °F (2014)
Degree Days  
Heating Degree Days 80    
Moisture  
Dew Point -22 °F    
Average Humidity 72    
Maximum Humidity 84    
Minimum Humidity 59    
Precipitation  
Precipitation 0.00 in - - ()
Sea Level Pressure  
Sea Level Pressure 30.40 in    
Wind  
Wind Speed 0 mph (North)    
Max Wind Speed 4 mph    
Max Gust Speed -    
Visibility 10 miles    
Events      
Averages and records for this station are not official NWS values.
T = Trace of Precipitation, MM = Missing Value Source: NWS Daily Summary

Daily Weather History Graph

Daily Weather History Graph

Search for Another Location

Airport or City:

Trip Planner

Search our weather history database for the weather conditions in past years. The results will help you decide how hot, cold, wet, or windy it might be!

Date:

Astronomy

Jan. 01, 2014 Rise Set
Actual Time 8:02 AM CST 4:38 PM CST
Civil Twilight 7:27 AM CST 5:13 PM CST
Nautical Twilight 6:48 AM CST 5:52 PM CST
Astronomical Twilight 6:11 AM CST 6:29 PM CST
Moon 7:49 AM CST (1/1) 5:29 PM CST (1/1)
Length of Visible Light 9h 46m
Length of Day
8h 35m
New Moon, 0% of the Moon is Illuminated
Jan 1
New Moon
Jan 7
First Quarter
Jan 15
Full
Jan 23
Last Quarter
Jan 30
New

Hourly Weather History & Observations

Time (CST) Temp. Windchill Dew Point Humidity Pressure Visibility Wind Dir Wind Speed Gust Speed Precip Events Conditions
12:16 AM -16.6 °F - -23.8 °F 70% 30.36 in 10.0 mi Calm Calm - N/A   Mostly Cloudy
12:36 AM -16.6 °F - -23.8 °F 70% 30.37 in 10.0 mi Calm Calm - N/A   Overcast
12:56 AM -16.6 °F - -23.8 °F 70% 30.37 in 10.0 mi Calm Calm - N/A   Overcast
1:16 AM -16.6 °F - -23.8 °F 70% 30.37 in 10.0 mi Calm Calm - N/A   Overcast
1:36 AM -16.6 °F - -23.8 °F 70% 30.37 in 10.0 mi Calm Calm - N/A   Overcast
1:56 AM -16.6 °F - -23.8 °F 70% 30.38 in 10.0 mi Calm Calm - N/A   Overcast
2:16 AM -18.4 °F - -23.8 °F 76% 30.38 in 10.0 mi Calm Calm - N/A   Mostly Cloudy
2:36 AM -18.4 °F - -23.8 °F 76% 30.39 in 10.0 mi Calm Calm - N/A   Scattered Clouds
2:56 AM -18.4 °F - -25.6 °F 70% 30.38 in 10.0 mi Calm Calm - N/A   Scattered Clouds
3:16 AM -18.4 °F - -23.8 °F 76% 30.39 in 10.0 mi Calm Calm - N/A   Mostly Cloudy
3:36 AM -18.4 °F - -23.8 °F 76% 30.38 in 10.0 mi Calm Calm - N/A   Overcast
3:56 AM -16.6 °F - -23.8 °F 70% 30.38 in 10.0 mi Calm Calm - N/A   Overcast
4:16 AM -16.6 °F - -22.0 °F 76% 30.38 in 10.0 mi Calm Calm - N/A   Overcast
4:36 AM -16.6 °F - -22.0 °F 76% 30.36 in 10.0 mi Calm Calm - N/A   Overcast
4:56 AM -16.6 °F - -22.0 °F 76% 30.37 in 10.0 mi Calm Calm - N/A   Overcast
5:16 AM -16.6 °F - -22.0 °F 76% 30.38 in 10.0 mi Calm Calm - N/A   Overcast
5:36 AM -16.6 °F - -22.0 °F 76% 30.38 in 10.0 mi Calm Calm - N/A   Overcast
5:56 AM -16.6 °F - -22.0 °F 76% 30.38 in 10.0 mi Calm Calm - N/A   Overcast
6:16 AM -16.6 °F - -22.0 °F 76% 30.39 in 10.0 mi Calm Calm - N/A   Overcast
6:36 AM -16.6 °F - -22.0 °F 76% 30.38 in 10.0 mi Calm Calm - N/A   Overcast
6:56 AM -16.6 °F - -22.0 °F 76% 30.38 in 10.0 mi Calm Calm - N/A   Overcast
7:16 AM -16.6 °F - -22.0 °F 76% 30.39 in 10.0 mi Calm Calm - N/A   Overcast
7:36 AM -16.6 °F - -22.0 °F 76% 30.40 in 10.0 mi Calm Calm - N/A   Overcast
7:56 AM -16.6 °F - -22.0 °F 76% 30.41 in 10.0 mi Calm Calm - N/A   Overcast
8:16 AM -14.8 °F - -22.0 °F 70% 30.42 in 10.0 mi Calm Calm - N/A   Overcast
8:36 AM -14.8 °F - -22.0 °F 70% 30.43 in 10.0 mi Calm Calm - N/A   Overcast
8:56 AM -14.8 °F - -20.2 °F 77% 30.43 in 10.0 mi Calm Calm - N/A   Mostly Cloudy
9:16 AM -14.8 °F - -20.2 °F 77% 30.43 in 10.0 mi Calm Calm - N/A   Scattered Clouds
9:36 AM -13.0 °F - -20.2 °F 70% 30.43 in 10.0 mi Calm Calm - N/A   Mostly Cloudy
9:56 AM -13.0 °F - -20.2 °F 70% 30.44 in 10.0 mi Calm Calm - N/A   Mostly Cloudy
10:16 AM -13.0 °F - -20.2 °F 70% 30.45 in 10.0 mi Calm Calm - N/A   Mostly Cloudy
10:36 AM -11.2 °F - -18.4 °F 70% 30.46 in 10.0 mi Calm Calm - N/A   Mostly Cloudy
10:56 AM -11.2 °F - -18.4 °F 70% 30.45 in 10.0 mi Calm Calm - N/A   Mostly Cloudy
11:16 AM -11.2 °F - -20.2 °F 64% 30.45 in 10.0 mi Calm Calm - N/A   Overcast
11:36 AM -9.4 °F - -18.4 °F 65% 30.44 in 10.0 mi Calm Calm - N/A   Overcast
11:56 AM -9.4 °F - -18.4 °F 65% 30.44 in 10.0 mi Calm Calm - N/A   Overcast
12:16 PM -9.4 °F - -18.4 °F 65% 30.42 in 10.0 mi Calm Calm - N/A   Overcast
12:36 PM -7.6 °F - -18.4 °F 59% 30.42 in 10.0 mi Calm Calm - N/A   Overcast
12:56 PM -7.6 °F - -18.4 °F 59% 30.41 in 10.0 mi Calm Calm - N/A   Overcast
1:16 PM -7.6 °F -16.5 °F -16.6 °F 65% 30.41 in 10.0 mi NNW 3.5 mph - N/A   Overcast
1:36 PM -7.6 °F - -16.6 °F 65% 30.41 in 10.0 mi Calm Calm - N/A   Overcast
1:56 PM -7.6 °F - -16.6 °F 65% 30.41 in 10.0 mi Calm Calm - N/A   Overcast
2:16 PM -7.6 °F - -16.6 °F 65% 30.40 in 7.0 mi Calm Calm - N/A   Overcast
2:36 PM -5.8 °F - -16.6 °F 60% 30.40 in 7.0 mi Calm Calm - N/A   Overcast
2:56 PM -5.8 °F - -14.8 °F 65% 30.40 in 10.0 mi Calm Calm - N/A   Overcast
3:16 PM -5.8 °F - -14.8 °F 65% 30.39 in 10.0 mi Calm Calm - N/A   Overcast
3:36 PM -5.8 °F -14.5 °F -14.8 °F 65% 30.40 in 10.0 mi North 3.5 mph - N/A   Overcast
3:56 PM -5.8 °F - -16.6 °F 60% 30.40 in 10.0 mi Calm Calm - N/A   Mostly Cloudy
4:16 PM -7.6 °F - -16.6 °F 65% 30.40 in 10.0 mi Calm Calm - N/A   Scattered Clouds
4:36 PM -11.2 °F - -18.4 °F 70% 30.41 in 10.0 mi Calm Calm - N/A   Clear
4:56 PM -13.0 °F - -18.4 °F 77% 30.41 in 10.0 mi Calm Calm - N/A   Clear
5:16 PM -14.8 °F - -18.4 °F 84% 30.41 in 10.0 mi Calm Calm - N/A   Clear
5:36 PM -16.6 °F - -20.2 °F 84% 30.42 in 10.0 mi Calm Calm - N/A   Clear
5:56 PM -16.6 °F - -22.0 °F 76% 30.42 in 10.0 mi Calm Calm - N/A   Clear
6:16 PM -16.6 °F - -22.0 °F 76% 30.42 in 10.0 mi Calm Calm - N/A   Clear
6:36 PM -18.4 °F - -23.8 °F 76% 30.42 in 10.0 mi Calm Calm - N/A   Clear
6:56 PM -18.4 °F - -23.8 °F 76% 30.42 in 7.0 mi Calm Calm - N/A   Scattered Clouds
7:16 PM -20.2 °F - -25.6 °F 76% 30.42 in 10.0 mi Calm Calm - N/A   Scattered Clouds
7:36 PM -18.4 °F - -25.6 °F 70% 30.42 in 10.0 mi Calm Calm - N/A   Scattered Clouds
7:56 PM -18.4 °F - -23.8 °F 76% 30.42 in 10.0 mi Calm Calm - N/A   Mostly Cloudy
8:16 PM -18.4 °F - -23.8 °F 76% 30.41 in 10.0 mi Calm Calm - N/A   Mostly Cloudy
8:36 PM -18.4 °F - -25.6 °F 70% 30.41 in 10.0 mi Calm Calm - N/A   Mostly Cloudy
8:56 PM -20.2 °F - -25.6 °F 76% 30.41 in 7.0 mi Calm Calm - N/A   Scattered Clouds
9:16 PM -22.0 °F - -27.4 °F 76% 30.41 in 10.0 mi Calm Calm - N/A   Scattered Clouds
9:36 PM -22.0 °F - -27.4 °F 76% 30.41 in 10.0 mi Calm Calm - N/A   Clear
9:56 PM -22.0 °F - -27.4 °F 76% 30.41 in 10.0 mi Calm Calm - N/A   Clear
10:16 PM -22.0 °F - -27.4 °F 76% 30.41 in 10.0 mi Calm Calm - N/A   Clear
10:36 PM -23.8 °F - -29.2 °F 76% 30.41 in 10.0 mi Calm Calm - N/A   Clear
10:56 PM -23.8 °F - -29.2 °F 76% 30.40 in 10.0 mi Calm Calm - N/A   Clear
11:16 PM -25.6 °F - -31.0 °F 76% 30.40 in 10.0 mi Calm Calm - N/A   Clear
11:36 PM -25.6 °F - -31.0 °F 76% 30.40 in 10.0 mi Calm Calm - N/A   Clear
11:56 PM -25.6 °F - -31.0 °F 76% 30.40 in 10.0 mi Calm Calm - N/A   Clear